Location: Baia Mare
(47.6567°N, 23.5850°E)
Time: 13:31:48
(UTC+03:00)

ISS - Pass Details

Date: 24 July 2019
Orbit: 409 x 418 km, 51.6° (Epoch: 21 July)

Event Time Altitude Azimuth Distance (km) Brightness Sun altitude
Rises 00:48:09 0° 293° (WNW) 2,353 0.5 -21.6°
Reaches altitude 10° 00:50:15 10° 296° (WNW) 1,487 -0.5 -21.7°
Enters shadow 00:53:09 58° 332° (NNW) 486 -3.3 -21.8°
